Location: Newark
(45.2862°N, 9.8850°E)
Time: 14:19:35
(UTC+00:00)

N. Korean satellite - Pass Details

Date: 10 December 2019
Orbit: 454 x 508 km, 97.2° (Epoch: 17 January)

Event Time Altitude Azimuth Distance (km) Brightness Sun altitude
Rises 05:00:11 0° 16° (NNE) 2,552 10.3 -18.2°
Reaches altitude 10° 05:02:19 10° 21° (NNE) 1,657 9.3 -17.9°
Maximum altitude 05:05:48 54° 100° (E) 581 7.3 -17.3°
Drops below altitude 10° 05:09:12 10° 178° (S) 1,614 9.4 -16.7°
Sets 05:11:15 0° 183° (S) 2,477 10.3 -16.3°
